FW5721 Weather Reports


time (UTC)temp
F
wind
direction
speed
knots
gust
knots
rain 1hr
in
rain 24hr
in
rain mn
in
humidity
%
barometer
mb
20260510043104 54 156 1.7 2.6 0.00 0.39 0.05 3 1010.4
20260510042604 54 162 1.7 2.6 0.00 0.39 0.05 3 1010.4
20260510042105 54 173 0.9 2.6 0.00 0.39 0.05 3 1010.4
20260510041104 54 175 1.7 2.6 0.00 0.39 0.05 3 1010.6
20260510040105 55 168 0.9 1.7 0.00 0.39 0.05 3 1010.6
20260510034604 55 169 1.7 1.7 0.00 0.39 0.05 3 1010.6
20260510034105 55 169 0.9 1.7 0.00 0.39 0.05 3 1010.6
20260510033604 55 169 0.9 1.7 0.00 0.39 0.05 3 1010.6
20260510032604 55 169 1.7 2.6 0.00 0.39 0.05 3 1010.6
20260510032104 55 169 0.9 1.7 0.00 0.39 0.05 3 1010.6
20260510031605 55 169 0.9 1.7 0.00 0.39 0.05 3 1010.6
20260510031103 55 169 0.9 1.7 0.00 0.39 0.05 3 1010.7
20260510030604 55 169 0.9 1.7 0.00 0.39 0.05 3 1010.7
20260510030104 55 169 0.0 1.7 0.00 0.39 0.05 3 1010.7
20260510025604 55 169 0.9 2.6 0.00 0.39 0.05 3 1010.6
20260510025104 55 169 1.7 2.6 0.00 0.39 0.05 3 1010.7
20260510024604 55 155 1.7 4.3 0.00 0.39 0.05 3 1010.7
20260510024104 55 167 1.7 2.6 0.00 0.39 0.05 3 1010.7
20260510023604 56 186 0.9 2.6 0.00 0.39 0.05 3 1010.5
20260510023103 56 187 0.9 1.7 0.00 0.39 0.05 3 1010.5
20260510022604 56 188 0.0 0.9 0.00 0.39 0.05 3 1010.5
20260510022104 56 188 0.0 0.0 0.00 0.39 0.05 3 1010.6
20260510021104 56 188 0.9 4.3 0.00 0.39 0.05 3 1010.5
20260510020604 56 178 1.7 2.6 0.00 0.39 0.05 3 1010.6
20260510020104 56 175 0.9 2.6 0.00 0.39 0.05 3 1010.6
20260510015604 56 182 1.7 2.6 0.00 0.39 0.05 3 1010.7
20260510015104 56 178 1.7 4.3 0.00 0.39 0.05 3 1010.7
20260510014604 57 152 2.6 5.2 0.00 0.39 0.05 3 1010.7
20260510014104 57 171 2.6 4.3 0.00 0.39 0.05 3 1010.7
20260510013603 57 173 2.6 4.3 0.00 0.39 0.05 3 1010.6
20260510013104 57 179 0.9 2.6 0.00 0.39 0.05 3 1010.7
20260510012604 57 186 1.7 2.6 0.00 0.39 0.05 3 1010.7
20260510012104 57 150 0.9 2.6 0.00 0.39 0.05 3 1010.7
20260510011104 57 150 1.7 2.6 0.00 0.39 0.05 3 1011.0
20260510010604 57 183 2.6 4.3 0.00 0.39 0.05 3 1011.0
20260510010104 57 158 1.7 4.3 0.00 0.39 0.05 3 1011.0
20260510005604 58 181 1.7 4.3 0.00 0.39 0.05 3 1011.1
20260510005103 58 170 2.6 5.2 0.00 0.39 0.05 3 1011.1
20260510004604 58 183 2.6 5.2 0.00 0.39 0.05 3 1011.2
20260510004104 58 181 3.5 5.2 0.01 0.39 0.05 3 1011.3
20260510003604 58 169 1.7 4.3 0.01 0.39 0.05 3 1011.4
20260510003104 58 154 1.7 2.6 0.01 0.39 0.05 3 1011.4
20260510002604 59 181 1.7 2.6 0.01 0.39 0.05 3 1011.6
20260510002104 59 200 1.7 2.6 0.01 0.39 0.05 3 1011.6
20260510001604 59 180 2.6 4.3 0.01 0.39 0.05 3 1011.6
20260510001104 59 191 1.7 2.6 0.01 0.39 0.05 3 1011.8
20260510000604 59 185 1.7 2.6 0.01 0.39 0.05 3 1011.8
20260510000104 59 192 1.7 4.3 0.01 0.39 0.05 3 1012.0
20260509235603 59 167 2.6 5.2 0.02 0.39 0.05 3 1012.1
20260509235104 59 170 1.7 4.3 0.02 0.39 0.05 3 1012.2
20260509234604 59 178 1.7 2.6 0.02 0.39 0.05 3 1012.3
20260509234104 59 175 1.7 2.6 0.02 0.39 0.04 3 1012.3
20260509233604 59 177 1.7 2.6 0.02 0.39 0.04 3 1012.4
20260509232605 59 186 0.9 1.7 0.02 0.39 0.04 3 1012.5
20260509232104 59 194 0.9 2.6 0.02 0.39 0.04 3 1012.5
20260509231604 59 194 0.9 2.6 0.02 0.39 0.04 3 1012.5
20260509231104 59 168 2.6 2.6 0.03 0.39 0.04 3 1012.6
20260509230604 59 159 0.9 2.6 0.04 0.39 0.04 3 1012.5
20260509224604 59 217 0.9 1.7 0.04 0.38 0.03 3 1012.6
20260509224104 60 232 0.0 1.7 0.04 0.37 0.02 3 1012.6
20260509223604 60 265 0.0 1.7 0.05 0.37 0.02 3 1012.6
20260509223103 60 265 1.7 2.6 0.05 0.37 0.02 3 1012.6
20260509222604 60 222 0.9 2.6 0.06 0.37 0.02 3 1012.5
20260509222103 60 170 1.7 2.6 0.06 0.37 0.02 3 1012.5
20260509221604 60 170 0.9 2.6 0.06 0.36 0.02 3 1012.6
20260509221104 60 187 0.9 1.7 0.05 0.35 0.01 3 1012.7
20260509220604 60 187 1.7 2.6 0.04 0.35 0.00 3 1012.6
20260509220104 60 184 0.9 1.7 0.05 0.35 0.00 3 1012.6
20260509215603 60 180 0.9 1.7 0.04 0.34 0.34 3 1012.6
20260509215103 60 179 1.7 2.6 0.04 0.34 0.34 3 1012.6
20260509214605 60 178 1.7 2.6 0.04 0.34 0.34 3 1012.6
20260509214104 60 167 0.9 2.6 0.03 0.33 0.33 3 1012.6
20260509213604 59 167 0.0 2.6 0.02 0.32 0.32 3 1012.5
20260509212604 59 167 0.9 2.6 0.02 0.31 0.31 3 1012.5
20260509212104 59 168 0.9 2.6 0.02 0.31 0.31 3 1012.5
20260509211603 59 167 0.9 4.3 0.01 0.31 0.31 3 1012.4
20260509211104 59 145 0.9 2.6 0.01 0.31 0.31 3 1012.4
20260509210604 59 174 1.7 4.3 0.01 0.31 0.31 3 1012.4
20260509210104 59 179 1.7 4.3 0.01 0.30 0.30 3 1012.3
20260509205604 59 180 0.9 1.7 0.01 0.30 0.30 3 1012.2
20260509205104 59 180 0.9 1.7 0.01 0.30 0.30 3 1012.1
20260509204604 59 180 0.9 1.7 0.01 0.30 0.30 3 1012.0
20260509203604 59 229 0.0 1.7 0.01 0.30 0.30 3 1011.7
20260509203103 59 229 0.0 2.6 0.01 0.30 0.30 3 1011.7
20260509202604 59 232 0.9 2.6 0.02 0.30 0.30 3 1011.4
20260509202104 59 333 0.9 2.6 0.02 0.30 0.30 3 1011.3
20260509201605 59 285 0.0 1.7 0.02 0.30 0.30 3 1011.1
20260509201104 59 285 0.9 2.6 0.04 0.30 0.30 3 1011.0
20260509200604 59 272 2.6 7.0 0.06 0.30 0.30 3 1010.8
20260509200104 59 292 2.6 7.0 0.06 0.29 0.29 3 1010.6
20260509194604 58 355 6.1 11.3 0.08 0.29 0.29 3 1010.0
20260509194104 58 0 11.3 13.0 0.09 0.29 0.29 3 1009.7
20260509193604 58 6 10.4 11.3 0.09 0.29 0.29 3 1009.7
20260509193104 59 3 6.1 10.4 0.10 0.29 0.29 3 1010.3
20260509192604 59 359 4.3 7.0 0.10 0.28 0.28 3 1010.7
20260509192104 59 27 2.6 4.3 0.11 0.28 0.28 3 1010.9
20260509191604 59 33 0.9 2.6 0.11 0.28 0.28 3 1011.0
20260509191104 59 257 0.0 0.9 0.10 0.26 0.26 3 1011.1
20260509190604 59 257 0.0 1.7 0.10 0.24 0.24 3 1011.2
20260509190104 59 257 0.9 1.7 0.11 0.24 0.24 3 1011.3
20260509185604 58 110 0.0 0.9 0.11 0.23 0.23 3 1011.4
20260509185103 58 110 0.9 2.6 0.13 0.22 0.22 3 1011.4
20260509184604 58 133 1.7 5.2 0.13 0.21 0.21 3 1011.6
20260509183603 59 144 3.5 7.0 0.14 0.20 0.20 3 1011.9
20260509183104 59 149 2.6 5.2 0.15 0.19 0.19 3 1011.9
20260509182104 59 180 0.9 2.6 0.15 0.17 0.17 3 1012.0
20260509181603 58 199 0.9 2.6 0.15 0.17 0.17 3 1012.1
20260509181104 58 199 0.9 1.7 0.15 0.16 0.16 3 1012.0
20260509180604 58 199 0.9 1.7 0.14 0.14 0.14 3 1012.0
20260509180105 58 199 0.9 4.3 0.13 0.13 0.13 3 1011.9
20260509175603 58 170 1.7 4.3 0.12 0.12 0.12 3 1011.9
20260509175103 58 189 1.7 2.6 0.09 0.09 0.09 3 1011.8
20260509174604 59 173 1.7 2.6 0.08 0.08 0.08 3 1011.7
20260509174104 59 214 1.7 4.3 0.06 0.06 0.06 3 1011.7
20260509173604 60 217 1.7 4.3 0.06 0.06 0.06 3 1011.8
20260509172603 63 197 1.7 2.6 0.03 0.03 0.03 3 1011.8
20260509172103 63 175 0.9 1.7 0.02 0.02 0.02 3 1011.6
20260509171604 63 207 0.9 2.6 0.02 0.02 0.02 3 1011.5
20260509171104 63 186 1.7 2.6 0.01 0.01 0.01 3 1011.5
20260509170603 63 184 1.7 2.6 0.00 0.00 0.00 3 1011.4
20260509170104 63 200 1.7 2.6 0.00 0.00 0.00 3 1011.3
20260509165604 63 193 1.7 4.3 0.00 0.00 0.00 3 1011.3
20260509165104 63 193 1.7 2.6 0.00 0.00 0.00 3 1011.2
20260509163604 63 182 1.7 2.6 0.00 0.00 0.00 3 1010.9
20260509163104 63 203 1.7 4.3 0.00 0.00 0.00 3 1010.8
20260509162604 63 152 2.6 5.2 0.00 0.00 0.00 3 1010.6
20260509161104 64 63 1.7 2.6 0.00 0.00 0.00 3 1010.7
20260509160604 64 227 0.0 2.6 0.00 0.00 0.00 3 1010.7
20260509155604 64 84 2.6 6.1 0.00 0.00 0.00 3 1010.9
20260509155103 64 141 0.9 2.6 0.00 0.00 0.00 3 1011.1
20260509154104 64 76 1.7 5.2 0.00 0.00 0.00 3 1011.2
20260509153104 64 56 2.6 7.0 0.00 0.00 0.00 3 1011.2
20260509152104 64 41 3.5 6.1 0.00 0.00 0.00 3 1011.5
20260509151604 64 41 2.6 4.3 0.00 0.00 0.00 3 1011.7
20260509150104 65 55 2.6 6.1 0.00 0.00 0.00 3 1011.9
20260509145604 65 52 4.3 5.2 0.00 0.00 0.00 3 1011.8
20260509145104 65 151 0.9 2.6 0.00 0.00 0.00 3 1011.8
20260509144604 66 131 0.9 4.3 0.00 0.00 0.00 3 1011.9
20260509144104 66 53 0.0 2.6 0.00 0.00 0.00 3 1011.9
20260509143604 66 179 0.9 2.6 0.00 0.00 0.00 3 1011.9
20260509142104 66 143 1.7 2.6 0.00 0.00 0.00 8 1011.9
20260509141105 66 163 1.7 6.1 0.00 0.00 0.00 13 1011.8
20260509140604 66 213 4.3 7.0 0.00 0.00 0.00 15 1011.9
20260509140104 66 154 4.3 7.8 0.00 0.00 0.00 20 1011.9
20260509134604 66 164 4.3 8.7 0.00 0.00 0.00 20 1012.0
20260509134104 66 181 5.2 10.4 0.00 0.00 0.00 8 1012.0
20260509133603 67 155 5.2 8.7 0.00 0.00 0.00 9 1012.1
20260509133104 67 157 2.6 8.7 0.00 0.00 0.00 3 1012.1
20260509132604 67 156 1.7 7.8 0.00 0.00 0.00 3 1012.2
20260509132104 67 59 0.9 7.0 0.00 0.00 0.00 3 1012.3
20260509131604 66 152 3.5 7.0 0.00 0.00 0.00 3 1012.1
20260509131104 66 191 1.7 2.6 0.00 0.00 0.00 3 1012.3
20260509130104 66 120 2.6 8.7 0.00 0.00 0.00 3 1012.4
20260509125603 66 138 0.9 5.2 0.00 0.00 0.00 3 1012.5
20260509125104 65 137 5.2 8.7 0.00 0.00 0.00 3 1012.7
20260509124605 65 162 4.3 10.4 0.00 0.00 0.00 3 1012.9
20260509124103 65 134 3.5 7.8 0.00 0.00 0.00 3 1013.0
20260509123604 65 111 5.2 8.7 0.00 0.00 0.00 3 1013.1
20260509123104 65 133 4.3 10.4 0.00 0.00 0.00 3 1013.1
20260509122604 65 128 2.6 7.0 0.00 0.00 0.00 3 1013.1
20260509122104 65 133 4.3 7.8 0.00 0.00 0.00 3 1013.2
20260509120603 65 188 2.6 7.0 0.00 0.00 0.00 3 1013.2
20260509120104 64 104 4.3 8.7 0.00 0.00 0.00 3 1013.0
20260509115604 64 114 2.6 6.1 0.00 0.00 0.00 3 1013.1
20260509115104 64 178 4.3 10.4 0.00 0.00 0.00 3 1013.1
20260509114604 65 170 4.3 8.7 0.00 0.00 0.00 3 1013.1
20260509114104 65 120 2.6 7.8 0.00 0.00 0.00 3 1013.1
20260509113603 65 173 6.1 11.3 0.00 0.00 0.00 3 1013.1
20260509113104 66 167 5.2 11.3 0.00 0.00 0.00 3 1013.2
20260509112604 66 135 4.3 10.4 0.00 0.00 0.00 3 1013.2
20260509112104 65 156 4.3 11.3 0.00 0.00 0.00 3 1013.4
20260509111603 65 176 5.2 10.4 0.00 0.00 0.00 3 1013.4
20260509111104 65 131 6.1 10.4 0.00 0.00 0.00 3 1013.4
20260509110604 65 130 6.1 12.2 0.00 0.00 0.00 3 1013.4
20260509105104 65 161 2.6 10.4 0.00 0.00 0.00 3 1013.7
20260509104604 64 144 6.1 11.3 0.00 0.00 0.00 3 1013.8
20260509104108 65 162 7.0 13.0 0.00 0.00 0.00 3 1013.7
20260509103604 65 172 4.3 10.4 0.00 0.00 0.00 3 1013.6
20260509103104 65 160 4.3 12.2 0.00 0.00 0.00 3 1013.7
20260509102603 65 152 5.2 12.2 0.00 0.00 0.00 3 1013.8
20260509102104 65 179 4.3 10.4 0.00 0.00 0.00 3 1013.8
20260509101104 65 180 5.2 10.4 0.00 0.00 0.00 3 1013.6
20260509100604 65 151 6.1 11.3 0.00 0.00 0.00 3 1013.6
20260509100104 65 169 2.6 7.0 0.00 0.00 0.00 3 1013.6
20260509095604 65 136 7.0 10.4 0.00 0.00 0.00 3 1013.5
20260509095104 65 192 3.5 7.0 0.00 0.00 0.00 3 1013.6
20260509094104 64 118 1.7 7.0 0.00 0.00 0.00 3 1013.3
20260509093604 65 139 4.3 10.4 0.00 0.00 0.00 3 1013.3
20260509093104 65 133 4.3 10.4 0.00 0.00 0.00 3 1013.2
20260509092604 65 170 4.3 10.4 0.00 0.00 0.00 3 1013.1
20260509092104 65 171 4.3 10.4 0.00 0.00 0.00 3 1013.0
20260509091603 65 126 5.2 8.7 0.00 0.00 0.00 3 1013.0
20260509091104 64 149 5.2 8.7 0.00 0.00 0.00 3 1013.0
20260509090104 64 143 6.1 8.7 0.00 0.00 0.00 3 1013.1
20260509085604 64 154 5.2 8.7 0.00 0.00 0.00 3 1013.2
20260509085103 64 156 6.1 10.4 0.00 0.00 0.00 3 1013.3
20260509084604 64 136 5.2 8.7 0.00 0.00 0.00 3 1013.3
20260509084104 64 152 5.2 10.4 0.00 0.00 0.00 3 1013.4
20260509083603 65 144 5.2 10.4 0.00 0.00 0.00 3 1013.4
20260509083104 65 156 4.3 8.7 0.00 0.00 0.00 3 1013.3
20260509082604 64 157 4.3 8.7 0.00 0.00 0.00 3 1013.5
20260509082104 64 167 6.1 10.4 0.00 0.00 0.00 3 1013.4
20260509081604 64 185 4.3 7.0 0.00 0.00 0.00 3 1013.4
20260509081104 64 136 3.5 7.8 0.00 0.00 0.00 3 1013.4
20260509075604 64 177 2.6 6.1 0.00 0.00 0.00 3 1013.5
20260509075104 64 180 4.3 6.1 0.00 0.00 0.00 3 1013.4
20260509074604 64 213 4.3 7.0 0.00 0.00 0.00 3 1013.5
20260509074104 64 191 3.5 7.8 0.00 0.00 0.00 3 1013.6
20260509073604 63 177 4.3 7.0 0.00 0.00 0.00 3 1013.6
20260509073103 64 178 4.3 7.0 0.00 0.00 0.00 3 1013.6
20260509072603 64 197 3.5 7.0 0.00 0.00 0.00 3 1013.6
20260509072104 63 197 3.5 7.8 0.00 0.00 0.00 3 1013.6
20260509071604 63 209 4.3 7.0 0.00 0.00 0.00 3 1013.6
20260509071103 63 206 3.5 7.0 0.00 0.00 0.00 3 1013.5
20260509070604 63 195 2.6 7.8 0.00 0.00 0.00 3 1013.6
20260509070104 63 184 4.3 7.8 0.00 0.00 0.00 3 1013.6
20260509065104 63 178 2.6 6.1 0.00 0.00 0.00 3 1013.5
20260509064604 64 191 1.7 5.2 0.00 0.00 0.00 3 1013.5
20260509064104 63 211 2.6 4.3 0.00 0.00 0.00 3 1013.6
20260509063605 63 203 2.6 6.1 0.00 0.00 0.00 3 1013.6
20260509063104 63 210 3.5 7.0 0.00 0.00 0.00 3 1013.6
20260509062604 63 203 1.7 5.2 0.00 0.00 0.00 3 1013.7
20260509062104 63 213 0.9 2.6 0.00 0.00 0.00 3 1013.8
20260509061604 63 147 0.0 2.6 0.00 0.00 0.00 3 1013.8
20260509061104 63 178 0.0 1.7 0.00 0.00 0.00 3 1013.8
20260509060604 62 198 0.9 7.8 0.00 0.00 0.00 3 1013.8
20260509060104 62 185 2.6 5.2 0.00 0.00 0.00 3 1013.7
20260509055604 62 184 2.6 6.1 0.00 0.00 0.00 3 1013.8
20260509055104 62 178 2.6 6.1 0.00 0.00 0.00 3 1013.7
20260509054104 62 182 2.6 6.1 0.00 0.00 0.00 3 1013.6
20260509053604 62 209 2.6 5.2 0.00 0.00 0.00 3 1013.7
20260509053104 61 181 2.6 7.0 0.00 0.00 0.00 3 1013.6
20260509052604 61 196 1.7 4.3 0.00 0.00 0.00 3 1013.5
20260509052104 61 277 1.7 5.2 0.00 0.00 0.00 3 1013.5
20260509051605 61 204 1.7 4.3 0.00 0.00 0.00 3 1013.5
20260509051104 61 238 1.7 2.6 0.00 0.00 0.00 3 1013.6
20260509050604 61 210 1.7 2.6 0.00 0.00 0.00 3 1013.5
20260509050104 61 180 1.7 2.6 0.00 0.00 0.00 3 1013.4
20260509045604 61 176 1.7 2.6 0.00 0.00 0.00 3 1013.4
20260509045104 61 165 2.6 5.2 0.00 0.00 0.00 3 1013.4
20260509044603 61 168 1.7 4.3 0.00 0.00 0.00 3 1013.4
20260509044104 61 168 2.6 5.2 0.00 0.00 0.00 3 1013.3